Location: Derby
(52.9213°N, 1.4761°W)
Time: 16:41:50
(UTC+01:00)

Vanguard 1 - Pass Details

Date: 27 May 2025
Orbit: 649 x 3822 km, 34.3° (Epoch: 14 June)

Event Time Altitude Azimuth Distance (km) Brightness Sun altitude
Rises 18:09:00 0° 246° (WSW) 7,883 15.7 25.0°
Reaches altitude 10° 18:15:16 10° 240° (WSW) 6,648 15.3 24.1°
Maximum altitude 18:32:35 37° 183° (S) 3,681 13.2 21.5°
Drops below altitude 10° 18:43:36 10° 122° (ESE) 4,281 12.9 19.8°
Sets 18:46:38 0° 114° (ESE) 4,909 13.1 19.4°
